Location: Dappach
(48.9767°N, 9.6998°E)
Time: 21:50:43
(UTC+00:00)

COSMOS 2428 - Pass Details

Date: 20 August 2024
Orbit: 842 x 857 km, 70.9° (Epoch: 09 September)

Event Time Altitude Azimuth Distance (km) Brightness Sun altitude
Exits shadow 23:57:14 68° 294° (WNW) 917 2.8 -28.6°
Maximum altitude 23:57:20 68° 301° (WNW) 916 2.8 -28.6°
Drops below altitude 10° 00:03:02 10° 25° (NNE) 2,494 6.0 -28.4°
Sets 00:05:32 0° 28° (NNE) 3,436 7.0 -28.3°
